Time,TemperatureF,DewpointF,PressureIn,WindDirection,WindDirectionDegrees,WindSpeedMPH,WindSpeedGustMPH,Humidity,HourlyPrecipIn,Conditions,Clouds,dailyrainin,SolarRadiationWatts/m^2,SoftwareType,DateUTC
2013-02-04 00:01:00,33.0,15.0,-100.00,South,170,3.0,7.0,48,0.00,,,0.00,0.000000,,2013-02-04 07:01:00,
2013-02-04 00:32:00,32.0,16.0,-100.00,WSW,239,5.0,7.0,52,0.00,,,0.00,0.000000,,2013-02-04 07:32:00,
2013-02-04 00:42:00,32.0,16.0,-100.00,WSW,239,5.0,7.0,52,0.00,,,0.00,0.000000,,2013-02-04 07:42:00,
2013-02-04 00:52:00,32.0,16.0,-100.00,WSW,239,5.0,7.0,52,0.00,,,0.00,0.000000,,2013-02-04 07:52:00,
2013-02-04 01:01:00,32.0,16.0,-100.00,WSW,239,5.0,7.0,52,0.00,,,0.00,0.000000,,2013-02-04 08:01:00,
2013-02-04 01:32:00,32.0,14.0,-100.00,WSW,244,4.0,8.0,46,0.00,,,0.00,0.000000,,2013-02-04 08:32:00,
2013-02-04 01:42:00,32.0,14.0,-100.00,WSW,244,4.0,8.0,46,0.00,,,0.00,0.000000,,2013-02-04 08:42:00,
2013-02-04 01:52:00,32.0,14.0,-100.00,WSW,244,4.0,8.0,46,0.00,,,0.00,0.000000,,2013-02-04 08:52:00,
2013-02-04 02:01:00,32.0,14.0,-100.00,WSW,244,4.0,8.0,46,0.00,,,0.00,0.000000,,2013-02-04 09:01:00,
2013-02-04 02:32:00,34.0,16.0,-100.00,North,4,1.0,7.0,47,0.00,,,0.00,0.000000,,2013-02-04 09:32:00,
2013-02-04 02:42:00,34.0,16.0,-100.00,North,4,1.0,7.0,47,0.00,,,0.00,0.000000,,2013-02-04 09:42:00,
2013-02-04 02:52:00,34.0,16.0,-100.00,North,4,1.0,7.0,47,0.00,,,0.00,0.000000,,2013-02-04 09:52:00,
2013-02-04 03:01:00,34.0,16.0,-100.00,North,4,1.0,7.0,47,0.00,,,0.00,0.000000,,2013-02-04 10:01:00,
2013-02-04 03:32:00,32.0,15.0,-100.00,WSW,256,3.0,8.0,48,0.00,,,0.00,0.000000,,2013-02-04 10:32:00,
2013-02-04 03:42:00,32.0,15.0,-100.00,WSW,256,3.0,8.0,48,0.00,,,0.00,0.000000,,2013-02-04 10:42:00,
2013-02-04 03:52:00,32.0,15.0,-100.00,WSW,256,3.0,8.0,48,0.00,,,0.00,0.000000,,2013-02-04 10:52:00,
2013-02-04 04:01:00,32.0,15.0,-100.00,WSW,256,3.0,8.0,48,0.00,,,0.00,0.000000,,2013-02-04 11:01:00,
2013-02-04 04:33:00,31.0,18.0,-100.00,WNW,282,3.0,8.0,57,0.00,,,0.00,0.000000,,2013-02-04 11:33:00,
2013-02-04 04:42:00,31.0,18.0,-100.00,WNW,282,3.0,8.0,57,0.00,,,0.00,0.000000,,2013-02-04 11:42:00,
2013-02-04 04:52:00,31.0,18.0,-100.00,WNW,282,3.0,8.0,57,0.00,,,0.00,0.000000,,2013-02-04 11:52:00,
2013-02-04 05:02:00,31.0,18.0,-100.00,WNW,282,3.0,8.0,57,0.00,,,0.00,0.000000,,2013-02-04 12:02:00,
2013-02-04 05:22:00,33.0,14.0,-100.00,WNW,299,3.0,9.0,46,0.00,,,0.00,0.000000,,2013-02-04 12:22:00,
2013-02-04 05:33:00,33.0,14.0,-100.00,WNW,299,3.0,9.0,46,0.00,,,0.00,0.000000,,2013-02-04 12:33:00,
2013-02-04 05:42:00,33.0,14.0,-100.00,WNW,299,3.0,9.0,46,0.00,,,0.00,0.000000,,2013-02-04 12:42:00,
2013-02-04 05:53:00,33.0,14.0,-100.00,WNW,299,3.0,9.0,46,0.00,,,0.00,0.000000,,2013-02-04 12:53:00,
2013-02-04 06:02:00,33.0,14.0,-100.00,WNW,299,3.0,9.0,46,0.00,,,0.00,0.000000,,2013-02-04 13:02:00,
2013-02-04 06:22:00,41.0,9.0,-100.00,WSW,237,10.0,21.0,26,0.00,,,0.00,0.000000,,2013-02-04 13:22:00,
2013-02-04 06:33:00,41.0,9.0,-100.00,WSW,237,10.0,21.0,26,0.00,,,0.00,0.000000,,2013-02-04 13:33:00,
2013-02-04 06:42:00,41.0,9.0,-100.00,WSW,237,10.0,21.0,26,0.00,,,0.00,0.000000,,2013-02-04 13:42:00,
2013-02-04 06:52:00,41.0,9.0,-100.00,WSW,237,10.0,21.0,26,0.00,,,0.00,0.000000,,2013-02-04 13:52:00,
2013-02-04 07:02:00,41.0,9.0,-100.00,WSW,237,10.0,21.0,26,0.00,,,0.00,0.000000,,2013-02-04 14:02:00,
2013-02-04 07:03:00,39.0,9.0,-100.00,WSW,241,3.0,21.0,28,0.00,,,0.00,0.000000,,2013-02-04 14:03:00,
2013-02-04 07:33:00,39.0,9.0,-100.00,WSW,241,3.0,21.0,28,0.00,,,0.00,0.000000,,2013-02-04 14:33:00,
2013-02-04 07:42:00,39.0,9.0,-100.00,WSW,241,3.0,21.0,28,0.00,,,0.00,0.000000,,2013-02-04 14:42:00,
2013-02-04 07:52:00,39.0,9.0,-100.00,WSW,241,3.0,21.0,28,0.00,,,0.00,0.000000,,2013-02-04 14:52:00,
2013-02-04 08:33:00,40.0,12.0,-100.00,South,191,10.0,12.0,31,0.00,,,0.00,0.000000,,2013-02-04 15:33:00,
2013-02-04 08:43:00,40.0,12.0,-100.00,South,191,10.0,12.0,31,0.00,,,0.00,0.000000,,2013-02-04 15:43:00,
2013-02-04 08:52:00,40.0,12.0,-100.00,South,191,10.0,12.0,31,0.00,,,0.00,0.000000,,2013-02-04 15:52:00,
2013-02-04 09:02:00,40.0,12.0,-100.00,South,191,10.0,12.0,31,0.00,,,0.00,0.000000,,2013-02-04 16:02:00,
2013-02-04 11:32:00,39.0,16.0,-100.00,NE,48,4.0,15.0,38,-99.99,,,0.00,128.000000,,2013-02-04 18:32:00,
2013-02-04 11:42:00,39.0,16.0,-100.00,NE,48,4.0,15.0,38,-99.99,,,0.00,128.000000,,2013-02-04 18:42:00,
2013-02-04 11:52:00,39.0,16.0,-100.00,NE,48,4.0,15.0,38,-99.99,,,0.00,128.000000,,2013-02-04 18:52:00,
2013-02-04 12:01:00,39.0,16.0,-100.00,NE,48,4.0,15.0,38,-99.99,,,0.00,128.000000,,2013-02-04 19:01:00,
2013-02-04 12:22:00,39.0,18.0,-100.00,NNE,22,5.0,12.0,42,0.00,,,0.00,264.000000,,2013-02-04 19:22:00,
2013-02-04 12:32:00,39.0,18.0,-100.00,NNE,22,5.0,12.0,42,0.00,,,0.00,264.000000,,2013-02-04 19:32:00,
2013-02-04 12:42:00,39.0,18.0,-100.00,NNE,22,5.0,12.0,42,0.00,,,0.00,264.000000,,2013-02-04 19:42:00,
2013-02-04 12:52:00,39.0,18.0,-100.00,NNE,22,5.0,12.0,42,0.00,,,0.00,264.000000,,2013-02-04 19:52:00,
2013-02-04 13:01:00,39.0,18.0,-100.00,NNE,22,5.0,12.0,42,0.00,,,0.00,264.000000,,2013-02-04 20:01:00,
2013-02-04 13:22:00,40.0,18.0,-100.00,NE,45,3.0,13.0,40,0.00,,,0.00,244.000000,,2013-02-04 20:22:00,
2013-02-04 13:32:00,40.0,18.0,-100.00,NE,45,3.0,13.0,40,0.00,,,0.00,244.000000,,2013-02-04 20:32:00,
2013-02-04 13:42:00,40.0,18.0,-100.00,NE,45,3.0,13.0,40,0.00,,,0.00,244.000000,,2013-02-04 20:42:00,
2013-02-04 13:52:00,40.0,18.0,-100.00,NE,45,3.0,13.0,40,0.00,,,0.00,244.000000,,2013-02-04 20:52:00,
2013-02-04 14:01:00,40.0,18.0,-100.00,NE,45,3.0,13.0,40,0.00,,,0.00,244.000000,,2013-02-04 21:01:00,
2013-02-04 14:32:00,41.0,19.0,-100.00,WNW,298,0.0,11.0,41,0.00,,,0.00,173.000000,,2013-02-04 21:32:00,
2013-02-04 14:43:00,41.0,19.0,-100.00,WNW,298,0.0,11.0,41,0.00,,,0.00,173.000000,,2013-02-04 21:43:00,
2013-02-04 14:52:00,41.0,19.0,-100.00,WNW,298,0.0,11.0,41,0.00,,,0.00,173.000000,,2013-02-04 21:52:00,
2013-02-04 15:02:00,41.0,19.0,-100.00,WNW,298,0.0,11.0,41,0.00,,,0.00,173.000000,,2013-02-04 22:02:00,
2013-02-04 15:33:00,41.0,19.0,-100.00,WSW,257,20.0,28.0,41,0.00,,,0.00,131.000000,,2013-02-04 22:33:00,
2013-02-04 15:42:00,41.0,19.0,-100.00,WSW,257,20.0,28.0,41,0.00,,,0.00,131.000000,,2013-02-04 22:42:00,
2013-02-04 15:52:00,41.0,19.0,-100.00,WSW,257,20.0,28.0,41,0.00,,,0.00,131.000000,,2013-02-04 22:52:00,
2013-02-04 16:01:00,41.0,19.0,-100.00,WSW,257,20.0,28.0,41,0.00,,,0.00,131.000000,,2013-02-04 23:01:00,
2013-02-04 16:32:00,42.0,19.0,-100.00,NNW,339,4.0,27.0,40,0.00,,,0.00,143.000000,,2013-02-04 23:32:00,
2013-02-04 16:42:00,42.0,19.0,-100.00,NNW,339,4.0,27.0,40,0.00,,,0.00,143.000000,,2013-02-04 23:42:00,
2013-02-04 16:52:00,42.0,19.0,-100.00,NNW,339,4.0,27.0,40,0.00,,,0.00,143.000000,,2013-02-04 23:52:00,
2013-02-04 17:01:00,42.0,19.0,-100.00,NNW,339,4.0,27.0,40,0.00,,,0.00,143.000000,,2013-02-05 00:01:00,
2013-02-04 17:32:00,39.0,19.0,-100.00,WSW,256,1.0,14.0,44,0.00,,,0.00,58.000000,,2013-02-05 00:32:00,
2013-02-04 17:42:00,39.0,19.0,-100.00,WSW,256,1.0,14.0,44,0.00,,,0.00,58.000000,,2013-02-05 00:42:00,
2013-02-04 17:52:00,39.0,19.0,-100.00,WSW,256,1.0,14.0,44,0.00,,,0.00,58.000000,,2013-02-05 00:52:00,
2013-02-04 18:01:00,39.0,19.0,-100.00,WSW,256,1.0,14.0,44,0.00,,,0.00,58.000000,,2013-02-05 01:01:00,
2013-02-04 18:32:00,39.0,18.0,-100.00,SE,140,5.0,11.0,42,0.00,,,-99.99,23.000000,,2013-02-05 01:32:00,
2013-02-04 18:42:00,39.0,18.0,-100.00,SE,140,5.0,11.0,42,0.00,,,-99.99,23.000000,,2013-02-05 01:42:00,
2013-02-04 18:52:00,39.0,18.0,-100.00,SE,140,5.0,11.0,42,0.00,,,-99.99,23.000000,,2013-02-05 01:52:00,
2013-02-04 19:01:00,39.0,18.0,-100.00,SE,140,5.0,11.0,42,0.00,,,-99.99,23.000000,,2013-02-05 02:01:00,
2013-02-04 19:32:00,39.0,19.0,-100.00,South,174,4.0,10.0,45,0.00,,,0.00,0.000000,,2013-02-05 02:32:00,
2013-02-04 19:42:00,39.0,19.0,-100.00,South,174,4.0,10.0,45,0.00,,,0.00,0.000000,,2013-02-05 02:42:00,
2013-02-04 19:52:00,39.0,19.0,-100.00,South,174,4.0,10.0,45,0.00,,,0.00,0.000000,,2013-02-05 02:52:00,
2013-02-04 20:01:00,39.0,19.0,-100.00,South,174,4.0,10.0,45,0.00,,,0.00,0.000000,,2013-02-05 03:01:00,
2013-02-04 20:32:00,38.0,18.0,-100.00,SE,127,5.0,10.0,43,0.00,,,0.00,0.000000,,2013-02-05 03:32:00,
2013-02-04 20:42:00,38.0,18.0,-100.00,SE,127,5.0,10.0,43,0.00,,,0.00,0.000000,,2013-02-05 03:42:00,
2013-02-04 20:52:00,38.0,18.0,-100.00,SE,127,5.0,10.0,43,0.00,,,0.00,0.000000,,2013-02-05 03:52:00,
2013-02-04 21:01:00,38.0,18.0,-100.00,SE,127,5.0,10.0,43,0.00,,,0.00,0.000000,,2013-02-05 04:01:00,
2013-02-04 21:32:00,38.0,19.0,-100.00,SSE,152,5.0,13.0,46,0.00,,,0.00,0.000000,,2013-02-05 04:32:00,
2013-02-04 21:42:00,38.0,19.0,-100.00,SSE,152,5.0,13.0,46,0.00,,,0.00,0.000000,,2013-02-05 04:42:00,
2013-02-04 21:52:00,38.0,19.0,-100.00,SSE,152,5.0,13.0,46,0.00,,,0.00,0.000000,,2013-02-05 04:52:00,
2013-02-04 22:01:00,38.0,19.0,-100.00,SSE,152,5.0,13.0,46,0.00,,,0.00,0.000000,,2013-02-05 05:01:00,
2013-02-04 22:32:00,37.0,19.0,-100.00,SW,231,4.0,8.0,48,0.00,,,0.00,0.000000,,2013-02-05 05:32:00,
2013-02-04 22:42:00,37.0,19.0,-100.00,SW,231,4.0,8.0,48,0.00,,,0.00,0.000000,,2013-02-05 05:42:00,
2013-02-04 22:52:00,37.0,19.0,-100.00,SW,231,4.0,8.0,48,0.00,,,0.00,0.000000,,2013-02-05 05:52:00,
2013-02-04 23:01:00,37.0,19.0,-100.00,SW,231,4.0,8.0,48,0.00,,,0.00,0.000000,,2013-02-05 06:01:00,
2013-02-04 23:32:00,37.0,19.0,-100.00,South,184,3.0,8.0,48,0.00,,,0.00,0.000000,,2013-02-05 06:32:00,
2013-02-04 23:42:00,37.0,19.0,-100.00,South,184,3.0,8.0,48,0.00,,,0.00,0.000000,,2013-02-05 06:42:00,
2013-02-04 23:52:00,37.0,19.0,-100.00,South,184,3.0,8.0,48,0.00,,,0.00,0.000000,,2013-02-05 06:52:00,